This is the latest recevied weather packets stored in our database for station/object DC1MBB-9. If no packets are shown the sender has not sent any weather packets the latest 1 day(s).
| Time | Temp. | Humidity | Pressure | Rain* | Wind** | Luminosity | Snow |
|---|---|---|---|---|---|---|---|
| 1778061426 | 20.56° C | 46% | 949 hPa | - | - | - | - |
| 1778061065 | 20.56° C | 47% | 949 hPa | - | - | - | - |
| 1778059983 | 20.56° C | 48% | 949 hPa | - | - | - | - |
| 1778059622 | 20° C | 49% | 949 hPa | - | - | - | - |
| 1778059261 | 20° C | 50% | 949 hPa | - | - | - | - |
| 1778058179 | 20° C | 51% | 949 hPa | - | - | - | - |
| 1778057818 | 20° C | 50% | 949 hPa | - | - | - | - |
| 1778057457 | 19.44° C | 51% | 949 hPa | - | - | - | - |
| 1778057096 | 19.44° C | 49% | 949 hPa | - | - | - | - |
| 1778056375 | 19.44° C | 51% | 949 hPa | - | - | - | - |
| 1778054932 | 18.89° C | 52% | 949 hPa | - | - | - | - |
| 1778054571 | 18.33° C | 54% | 950 hPa | - | - | - | - |
| 1778054210 | 18.33° C | 54% | 950 hPa | - | - | - | - |
| 1778053489 | 17.78° C | 59% | 950 hPa | - | - | - | - |
| 1778053128 | 17.78° C | 59% | 950 hPa | - | - | - | - |
| 1778052767 | 17.22° C | 62% | 950 hPa | - | - | - | - |
| 1778052406 | 17.78° C | 59% | 950 hPa | - | - | - | - |
| 1778051685 | 17.22° C | 64% | 950 hPa | - | - | - | - |
| 1778051324 | 17.22° C | 68% | 950 hPa | - | - | - | - |
| 1778050963 | 16.67° C | 68% | 950 hPa | - | - | - | - |
| 1778050242 | 16.11° C | 74% | 950 hPa | - | - | - | - |
| 1778049881 | 15.56° C | 77% | 950 hPa | - | - | - | - |
| 1778049520 | 15.56° C | 83% | 950 hPa | - | - | - | - |
| 1778048438 | 15.56° C | 85% | 950 hPa | - | - | - | - |
| 1778048077 | 15° C | 87% | 950 hPa | - | - | - | - |
* Rain since midnight (hover to see other rain measurements)
** Current wind speed in m/s (hover to see current wind gust speed)